W0WC Weather Reports


Display with metric or nautical units.
time (UTC)temp
F
wind
direction
speed
MPH
gust
MPH
rain 1hr
in
rain 24hr
in
rain mn
in
humidity
%
barometer
mb
20260502164055 60 338 8.0 9.0 0.00 0.00 0.00 38 1022.1
20260502163550 60 359 2.0 3.0 0.00 0.00 0.00 41 1022.2
20260502163048 60 307 6.0 8.0 0.00 0.00 0.00 39 1022.3
20260502162544 60 2 2.0 3.0 0.00 0.00 0.00 39 1022.1
20260502162042 59 320 3.0 4.0 0.00 0.00 0.00 42 1022.1
20260502161538 59 29 4.0 7.0 0.00 0.00 0.00 39 1022.3
20260502161036 59 331 3.0 4.0 0.00 0.00 0.00 40 1022.4
20260502160534 59 348 9.0 10.0 0.00 0.00 0.00 40 1022.3
20260502151947 58 306 6.0 7.0 0.00 0.00 0.00 43 1022.1
20260502151443 57 31 3.0 4.0 0.00 0.00 0.00 44 1022.3
20260502150941 57 322 6.0 8.0 0.00 0.00 0.00 43 1022.1
20260502150438 57 5 7.0 9.0 0.00 0.00 0.00 43 1022.2
20260502130323 47 359 1.0 1.0 0.00 0.00 0.00 78 1021.8
20260502123809 46 352 1.0 1.0 0.00 0.00 0.00 82 1021.3
20260502123306 46 4 1.0 2.0 0.00 0.00 0.00 85 1021.5
20260502122802 45 6 0.0 0.0 0.00 0.00 0.00 88 1021.0
20260502122258 44 3 1.0 1.0 0.00 0.00 0.00 89 1021.0
20260502121757 43 4 0.0 0.0 0.00 0.00 0.00 91 1021.2
20260502121254 43 5 0.0 0.0 0.00 0.00 0.00 92 1021.0
20260502120751 42 6 0.0 0.0 0.00 0.00 0.00 92 1021.0
20260502120248 42 5 0.0 0.0 0.00 0.00 0.00 92 1020.8
20260502115745 42 5 0.0 0.0 0.00 0.00 0.00 92 1020.8
20260502115242 42 0 1.0 1.0 0.00 0.00 0.00 92 1020.8
20260502114738 42 358 0.0 0.0 0.00 0.00 0.00 91 1020.7
20260502114235 42 358 0.0 0.0 0.00 0.00 0.00 91 1020.9
20260502113732 42 358 0.0 0.0 0.00 0.00 0.00 91 1020.6
20260502113230 42 358 0.0 0.0 0.00 0.00 0.00 90 1020.7
20260502112728 42 357 0.0 0.0 0.00 0.00 0.00 89 1020.3
20260502112225 42 356 0.0 0.0 0.00 0.00 0.00 89 1020.1
20260502111722 42 11 0.0 0.0 0.00 0.00 0.00 88 1020.2
20260502111220 43 345 0.0 1.0 0.00 0.00 0.00 88 1020.2
20260502110717 43 359 0.0 0.0 0.00 0.00 0.00 87 1020.1
20260502110215 43 0 0.0 0.0 0.00 0.00 0.00 86 1020.2
20260502105713 44 1 0.0 0.0 0.00 0.00 0.00 85 1020.0
20260502105209 44 1 0.0 0.0 0.00 0.00 0.00 85 1020.0
20260502104707 44 1 0.0 0.0 0.00 0.00 0.00 84 1020.0
20260502104204 44 1 0.0 0.0 0.00 0.00 0.00 83 1019.9
20260502103701 45 1 0.0 0.0 0.00 0.00 0.00 82 1019.9
20260502103159 46 1 0.0 0.0 0.00 0.00 0.00 80 1019.9
20260502102655 46 2 0.0 1.0 0.00 0.00 0.00 80 1019.7
20260502102152 46 10 0.0 0.0 0.00 0.00 0.00 81 1019.6
20260502101650 46 352 2.0 2.0 0.00 0.00 0.00 81 1019.7
20260502101148 46 14 1.0 2.0 0.00 0.00 0.00 82 1019.6
20260502100646 46 348 2.0 2.0 0.00 0.00 0.00 82 1019.6
20260502100144 46 6 2.0 2.0 0.00 0.00 0.00 83 1019.7
20260502091118 46 2 0.0 0.0 0.00 0.00 0.00 85 1019.6
20260502090615 46 2 0.0 0.0 0.00 0.00 0.00 85 1019.2
20260502090113 46 2 0.0 0.0 0.00 0.00 0.00 85 1019.5
20260502071510 47 350 0.0 0.0 0.00 0.00 0.00 79 1019.1
20260502071008 48 4 0.0 0.0 0.00 0.00 0.00 79 1019.1
20260502070506 48 4 0.0 0.0 0.00 0.00 0.00 77 1019.1
20260502070004 48 10 0.0 0.0 0.00 0.00 0.00 77 1019.0
20260502065502 49 10 0.0 0.0 0.00 0.00 0.00 74 1019.0
20260502065000 49 10 0.0 0.0 0.00 0.00 0.00 71 1019.1
20260502064458 50 10 0.0 0.0 0.00 0.00 0.00 72 1018.8
20260502063954 50 11 0.0 0.0 0.00 0.00 0.00 70 1019.1
20260502063452 51 357 0.0 0.0 0.00 0.00 0.00 68 1018.9
20260502062949 51 16 0.0 0.0 0.00 0.00 0.00 68 1019.1
20260502062446 51 347 0.0 1.0 0.00 0.00 0.00 69 1018.9
20260502061945 51 353 0.0 0.0 0.00 0.00 0.00 68 1019.3
20260502061443 51 353 0.0 0.0 0.00 0.00 0.00 65 1019.1
20260502060939 50 348 0.0 0.0 0.00 0.00 0.00 67 1019.2
20260502060434 50 352 0.0 0.0 0.00 0.00 0.00 67 1019.3
20260502055931 49 354 0.0 0.0 0.00 0.00 0.00 68 1019.2
20260502055429 49 354 0.0 0.0 0.00 0.00 0.00 72 1019.0
20260502054929 49 354 0.0 0.0 0.00 0.00 0.00 72 1019.3
20260502054426 49 354 0.0 0.0 0.00 0.00 0.00 72 1019.3
20260502053923 49 354 0.0 0.0 0.00 0.00 0.00 70 1019.4
20260502053420 49 354 0.0 0.0 0.00 0.00 0.00 74 1019.3
20260502052918 49 354 0.0 0.0 0.00 0.00 0.00 76 1019.2
20260502052416 50 350 0.0 0.0 0.00 0.00 0.00 77 1019.3
20260502051914 50 350 0.0 0.0 0.00 0.00 0.00 73 1019.2
20260502051412 50 345 0.0 0.0 0.00 0.00 0.00 75 1019.1
20260502050908 50 352 0.0 0.0 0.00 0.00 0.00 75 1019.2
20260502050405 50 358 0.0 0.0 0.00 0.00 0.00 77 1019.3
20260502045902 51 352 0.0 0.0 0.00 0.00 0.00 76 1019.1
20260502045359 52 354 0.0 0.0 0.00 0.00 0.00 69 1019.1
20260502044856 52 355 0.0 0.0 0.00 0.00 0.00 65 1018.9
20260502044351 53 355 0.0 0.0 0.00 0.00 0.00 66 1019.1
20260502043849 53 332 0.0 0.0 0.00 0.00 0.00 63 1019.1
20260502043346 53 332 0.0 0.0 0.00 0.00 0.00 64 1019.1
20260502042846 53 332 0.0 0.0 0.00 0.00 0.00 65 1019.2
20260502042343 53 355 0.0 0.0 0.00 0.00 0.00 65 1019.0
20260502041840 53 355 0.0 0.0 0.00 0.00 0.00 62 1019.0
20260502041337 53 355 0.0 0.0 0.00 0.00 0.00 69 1019.3
20260502040835 53 354 0.0 0.0 0.00 0.00 0.00 64 1019.1
20260502040332 52 354 0.0 0.0 0.00 0.00 0.00 67 1019.2
20260502035828 52 354 0.0 0.0 0.00 0.00 0.00 69 1019.4
20260502035325 52 15 0.0 0.0 0.00 0.00 0.00 70 1019.2
20260502034822 53 15 0.0 0.0 0.00 0.00 0.00 72 1019.3
20260502034320 53 0 0.0 0.0 0.00 0.00 0.00 71 1019.5
20260502033818 53 16 0.0 0.0 0.00 0.00 0.00 69 1019.1
20260502033316 53 355 0.0 0.0 0.00 0.00 0.00 69 1019.3
20260502032812 53 355 0.0 0.0 0.00 0.00 0.00 72 1019.2
20260502032308 54 355 0.0 0.0 0.00 0.00 0.00 71 1019.2
20260502031806 54 17 0.0 0.0 0.00 0.00 0.00 66 1019.2
20260502031304 54 355 0.0 0.0 0.00 0.00 0.00 63 1019.3
20260502030803 53 355 0.0 0.0 0.00 0.00 0.00 67 1019.2
20260502030300 53 0 0.0 0.0 0.00 0.00 0.00 67 1019.0
20260502025757 53 352 0.0 0.0 0.00 0.00 0.00 68 1018.9
20260502025255 53 354 0.0 0.0 0.00 0.00 0.00 65 1019.2
20260502024752 53 354 0.0 0.0 0.00 0.00 0.00 66 1019.1
20260502024250 53 351 0.0 0.0 0.00 0.00 0.00 61 1019.0
20260502023748 52 349 0.0 0.0 0.00 0.00 0.00 62 1018.9
20260502023245 53 6 0.0 0.0 0.00 0.00 0.00 63 1018.8
20260502022743 53 6 0.0 0.0 0.00 0.00 0.00 61 1018.8
20260502022239 53 6 0.0 0.0 0.00 0.00 0.00 62 1018.8
20260502021736 53 5 0.0 0.0 0.00 0.00 0.00 62 1018.8
20260502021233 54 11 0.0 0.0 0.00 0.00 0.00 61 1018.7
20260502020730 54 356 0.0 0.0 0.00 0.00 0.00 62 1018.6
20260502020228 54 10 0.0 0.0 0.00 0.00 0.00 61 1018.5
20260502015726 54 21 0.0 0.0 0.00 0.00 0.00 61 1018.3
20260502015221 54 21 0.0 0.0 0.00 0.00 0.00 60 1018.5
20260502014720 55 21 0.0 0.0 0.00 0.00 0.00 59 1018.4
20260502014216 55 17 0.0 0.0 0.00 0.00 0.00 56 1018.1
20260502013712 55 14 0.0 0.0 0.00 0.00 0.00 54 1018.2
20260502013208 55 16 0.0 0.0 0.00 0.00 0.00 57 1018.0
20260502012705 56 347 0.0 0.0 0.00 0.00 0.00 59 1018.3
20260502012203 56 359 0.0 0.0 0.00 0.00 0.00 57 1018.0
20260502011659 56 0 0.0 0.0 0.00 0.00 0.00 57 1017.9
20260502011155 57 0 0.0 0.0 0.00 0.00 0.00 54 1017.9
20260502010653 58 0 0.0 0.0 0.00 0.00 0.00 51 1017.8
20260502010149 59 0 0.0 0.0 0.00 0.00 0.00 51 1017.9
20260502005647 60 0 0.0 0.0 0.00 0.00 0.00 50 1017.6
20260502005144 60 0 0.0 0.0 0.00 0.00 0.00 48 1017.4
20260502004640 61 0 0.0 0.0 0.00 0.00 0.00 41 1017.5
20260502004137 61 2 0.0 0.0 0.00 0.00 0.00 42 1017.3
20260502003635 62 356 0.0 0.0 0.00 0.00 0.00 44 1017.5
20260502003132 63 4 0.0 0.0 0.00 0.00 0.00 39 1017.3
20260502002627 64 0 0.0 0.0 0.00 0.00 0.00 39 1017.3
20260502002125 64 359 0.0 0.0 0.00 0.00 0.00 36 1017.1
20260502001623 65 359 0.0 0.0 0.00 0.00 0.00 34 1017.2
20260502001120 65 329 0.0 0.0 0.00 0.00 0.00 33 1017.0
20260502000618 65 308 2.0 2.0 0.00 0.00 0.00 33 1017.1
20260502000115 65 358 0.0 0.0 0.00 0.00 0.00 34 1017.0
20260501235611 65 67 1.0 1.0 0.00 0.00 0.00 35 1017.1
20260501235107 66 343 1.0 2.0 0.00 0.00 0.00 33 1017.1
20260501234603 67 13 0.0 1.0 0.00 0.00 0.00 30 1016.9
20260501234100 66 2 0.0 0.0 0.00 0.00 0.00 32 1017.0
20260501233559 65 3 0.0 0.0 0.00 0.00 0.00 32 1017.1
20260501233055 65 332 1.0 2.0 0.00 0.00 0.00 33 1017.0
20260501232551 65 310 3.0 3.0 0.00 0.00 0.00 31 1017.2
20260501232049 65 8 4.0 4.0 0.00 0.00 0.00 31 1017.2
20260501231546 66 354 3.0 3.0 0.00 0.00 0.00 32 1017.2
20260501231045 65 355 2.0 2.0 0.00 0.00 0.00 32 1017.1
20260501230543 65 325 1.0 2.0 0.00 0.00 0.00 32 1017.2
20260501230041 65 28 2.0 3.0 0.00 0.00 0.00 32 1017.0
20260501225538 65 6 2.0 3.0 0.00 0.00 0.00 32 1017.0
20260501225034 65 46 5.0 7.0 0.00 0.00 0.00 32 1016.9
20260501224532 65 6 4.0 4.0 0.00 0.00 0.00 33 1016.8
20260501224028 65 16 6.0 8.0 0.00 0.00 0.00 32 1016.8
20260501223525 65 12 4.0 4.0 0.00 0.00 0.00 31 1016.9
20260501223021 65 15 1.0 1.0 0.00 0.00 0.00 33 1016.9
20260501222518 65 332 5.0 7.0 0.00 0.00 0.00 33 1016.9
20260501222015 64 346 5.0 8.0 0.00 0.00 0.00 32 1017.0
20260501221511 65 349 9.0 13.0 0.00 0.00 0.00 32 1017.0
20260501221009 65 359 6.0 8.0 0.00 0.00 0.00 32 1016.9
20260501220506 65 356 6.0 7.0 0.00 0.00 0.00 33 1016.8
20260501220002 65 313 7.0 9.0 0.00 0.00 0.00 31 1017.0
20260501215459 65 329 4.0 6.0 0.00 0.00 0.00 32 1017.1
20260501214954 66 0 7.0 9.0 0.00 0.00 0.00 33 1017.1
20260501214450 64 310 2.0 3.0 0.00 0.00 0.00 32 1017.2
20260501213945 64 341 3.0 3.0 0.00 0.00 0.00 32 1017.3
20260501213443 64 25 2.0 3.0 0.00 0.00 0.00 33 1017.3
20260501212938 65 312 4.0 4.0 0.00 0.00 0.00 32 1017.4
20260501212435 64 314 1.0 2.0 0.00 0.00 0.00 34 1017.6
20260501211932 64 299 5.0 7.0 0.00 0.00 0.00 32 1017.8
20260501211430 64 301 6.0 8.0 0.00 0.00 0.00 34 1018.0
20260501210927 66 17 8.0 13.0 0.00 0.00 0.00 31 1017.9
20260501210424 66 281 9.0 11.0 0.00 0.00 0.00 32 1018.1
20260501205920 65 343 3.0 3.0 0.00 0.00 0.00 32 1018.1
20260501205417 65 8 1.0 1.0 0.00 0.00 0.00 33 1018.1
20260501204914 66 0 6.0 8.0 0.00 0.00 0.00 32 1018.3
20260501204410 65 301 3.0 3.0 0.00 0.00 0.00 30 1018.3
20260501203906 65 14 2.0 3.0 0.00 0.00 0.00 30 1018.4
20260501203404 65 288 4.0 4.0 0.00 0.00 0.00 31 1018.6
20260501202901 65 322 4.0 4.0 0.00 0.00 0.00 30 1018.5
20260501202358 65 341 2.0 3.0 0.00 0.00 0.00 31 1018.8
20260501201854 65 44 8.0 9.0 0.00 0.00 0.00 30 1019.1
20260501201351 65 16 8.0 10.0 0.00 0.00 0.00 29 1018.9
20260501200848 66 328 5.0 7.0 0.00 0.00 0.00 29 1018.8
20260501200345 66 30 2.0 2.0 0.00 0.00 0.00 30 1018.9
20260501195843 66 356 4.0 7.0 0.00 0.00 0.00 29 1019.0
20260501195338 65 0 2.0 3.0 0.00 0.00 0.00 30 1019.2
20260501194835 64 359 1.0 2.0 0.00 0.00 0.00 30 1019.5
20260501194331 64 351 6.0 7.0 0.00 0.00 0.00 29 1019.7
20260501193827 64 128 4.0 6.0 0.00 0.00 0.00 29 1019.6
20260501193326 64 47 0.0 1.0 0.00 0.00 0.00 29 1019.8
20260501192823 65 31 5.0 7.0 0.00 0.00 0.00 30 1019.7
20260501192320 64 80 3.0 4.0 0.00 0.00 0.00 29 1019.9
20260501191817 64 348 4.0 4.0 0.00 0.00 0.00 31 1019.8
20260501191314 64 350 2.0 3.0 0.00 0.00 0.00 29 1019.9
20260501190811 64 17 2.0 3.0 0.00 0.00 0.00 29 1019.9
20260501190307 64 20 3.0 3.0 0.00 0.00 0.00 29 1019.9
20260501185802 64 11 3.0 3.0 0.00 0.00 0.00 30 1019.9
20260501185258 64 49 4.0 4.0 0.00 0.00 0.00 29 1019.8
20260501184754 64 9 2.0 3.0 0.00 0.00 0.00 29 1020.0
20260501184250 64 330 2.0 3.0 0.00 0.00 0.00 30 1020.0
20260501183746 65 16 5.0 8.0 0.00 0.00 0.00 28 1019.9
20260501183243 65 37 1.0 1.0 0.00 0.00 0.00 29 1019.8
20260501182739 64 64 3.0 6.0 0.00 0.00 0.00 28 1020.0
20260501182237 64 70 2.0 3.0 0.00 0.00 0.00 30 1020.1
20260501181733 64 10 1.0 1.0 0.00 0.00 0.00 31 1020.1
20260501181231 63 17 2.0 3.0 0.00 0.00 0.00 32 1020.1
20260501180729 63 102 3.0 4.0 0.00 0.00 0.00 30 1020.1
20260501180224 63 79 0.0 1.0 0.00 0.00 0.00 30 1020.1
20260501175721 64 74 2.0 3.0 0.00 0.00 0.00 29 1020.2
20260501175218 63 29 1.0 3.0 0.00 0.00 0.00 30 1020.2
20260501174714 63 21 1.0 2.0 0.00 0.00 0.00 29 1020.1
20260501174212 64 71 1.0 2.0 0.00 0.00 0.00 30 1020.3
20260501173710 63 107 2.0 3.0 0.00 0.00 0.00 32 1020.5
20260501173207 63 343 4.0 4.0 0.00 0.00 0.00 32 1020.4
20260501172703 64 45 6.0 8.0 0.00 0.00 0.00 31 1020.3
20260501172157 63 13 0.0 0.0 0.00 0.00 0.00 31 1020.3
20260501171654 63 23 2.0 2.0 0.00 0.00 0.00 31 1020.5
20260501171150 63 15 3.0 3.0 0.00 0.00 0.00 30 1020.4
20260501170648 62 127 2.0 2.0 0.00 0.00 0.00 32 1020.3
20260501170145 62 319 7.0 8.0 0.00 0.00 0.00 35 1020.3